CW6668 Weather Reports


time (UTC)temp
F
wind
direction
speed
knots
gust
knots
rain 1hr
in
rain 24hr
in
rain mn
in
humidity
%
barometer
mb
20260505153032 77 177 5.2 9.6 0.00 0.00 0.00 42 1012.1
20260505151515 76 134 4.3 9.6 0.00 0.00 0.00 43 1012.0
20260505140108 72 273 1.7 6.1 0.00 0.00 0.00 53 1012.0
20260505124537 66 227 2.6 7.8 0.00 0.00 0.00 55 1012.5
20260505123046 64 184 1.7 6.1 0.00 0.00 0.00 57 1012.5
20260505121527 64 252 2.6 7.8 0.00 0.00 0.00 58 1012.4
20260505120022 62 265 3.5 7.8 0.00 0.00 0.00 59 1012.3
20260505114518 61 250 4.3 8.7 0.00 0.00 0.00 60 1012.3
20260505113016 61 273 1.7 8.7 0.00 0.00 0.00 60 1012.2
20260505111515 61 163 5.2 12.2 0.00 0.00 0.00 60 1012.0
20260505101503 60 215 2.6 11.3 0.00 0.00 0.00 62 1011.2
20260505100002 60 274 2.6 8.7 0.00 0.00 0.00 63 1011.3
20260505094559 60 227 2.6 8.7 0.00 0.00 0.00 63 1011.3
20260505093059 59 173 2.6 8.7 0.00 0.00 0.00 64 1011.1
20260505091559 60 210 2.6 8.7 0.00 0.00 0.00 64 1011.1
20260505090058 60 171 2.6 7.8 0.00 0.00 0.00 64 1011.1
20260505084603 60 193 1.7 7.8 0.00 0.00 0.00 64 1011.3
20260505083108 60 219 2.6 7.8 0.00 0.00 0.00 64 1011.2
20260505081554 60 200 1.7 11.3 0.00 0.00 0.00 65 1011.1
20260505080100 61 279 0.9 6.1 0.00 0.00 0.00 65 1011.1
20260505074550 61 158 1.7 5.2 0.00 0.00 0.00 65 1011.0
20260505073057 60 178 1.7 6.1 0.00 0.00 0.00 66 1010.9
20260505071549 60 144 0.9 7.8 0.00 0.00 0.00 66 1010.9
20260505070050 60 212 1.7 4.3 0.00 0.00 0.00 68 1010.8
20260505064614 59 155 0.9 4.3 0.00 0.00 0.00 69 1010.7
20260505063045 59 169 1.7 3.5 0.00 0.00 0.00 69 1010.8
20260505061544 57 128 1.7 3.5 0.00 0.00 0.00 74 1011.0
20260505060042 57 133 1.7 3.5 0.00 0.00 0.00 73 1011.0
20260505054547 58 133 0.9 2.6 0.00 0.00 0.00 71 1010.9
20260505053036 59 196 0.0 1.7 0.00 0.00 0.00 70 1010.8
20260505051533 61 196 0.0 2.6 0.00 0.00 0.00 66 1010.9
20260505041531 64 216 0.9 4.3 0.00 0.00 0.00 59 1011.1
20260505040031 64 180 1.7 7.0 0.00 0.00 0.00 58 1011.0
20260505034533 65 237 2.6 8.7 0.00 0.00 0.00 56 1010.9
20260505033030 66 175 0.9 7.8 0.00 0.00 0.00 55 1010.9
20260505031527 66 198 1.7 9.6 0.00 0.00 0.00 54 1011.0
20260505030041 66 183 1.7 7.0 0.00 0.00 0.00 53 1011.0
20260505024526 66 201 0.9 7.0 0.00 0.00 0.00 52 1010.9
20260505023027 67 184 1.7 6.1 0.00 0.00 0.00 49 1010.9
20260505021525 67 246 0.9 7.0 0.00 0.00 0.00 49 1010.9
20260505020024 68 190 0.9 4.3 0.00 0.00 0.00 48 1010.8
20260505014525 68 159 1.7 6.1 0.00 0.00 0.00 47 1010.5
20260505013023 69 140 2.6 7.0 0.00 0.00 0.00 47 1010.5
20260505011523 69 223 1.7 5.2 0.00 0.00 0.00 46 1010.2
20260505010021 69 214 1.7 9.6 0.00 0.00 0.00 45 1010.1
20260505004533 70 133 1.7 9.6 0.00 0.00 0.00 44 1010.1
20260505003019 70 132 1.7 5.2 0.00 0.00 0.00 44 1010.0
20260505001519 71 138 2.6 7.8 0.00 0.00 0.00 43 1009.9
20260505000019 71 224 3.5 12.2 0.00 0.00 0.00 41 1010.0
20260504234520 72 327 0.9 8.7 0.00 0.00 0.00 41 1009.8
20260504233021 72 180 3.5 12.2 0.00 0.00 0.00 40 1009.7
20260504231516 72 184 3.5 10.4 0.00 0.00 0.00 39 1009.7
20260504230016 73 103 3.5 20.9 0.00 0.00 0.00 38 1009.6
20260504224515 74 171 1.7 14.8 0.00 0.00 0.00 37 1009.7
20260504223015 74 219 6.1 13.9 0.00 0.00 0.00 35 1009.6
20260504221514 73 103 4.3 12.2 0.00 0.00 0.00 37 1009.7
20260504220014 75 201 5.2 19.1 0.00 0.00 0.00 35 1009.5
20260504214512 76 154 3.5 8.7 0.00 0.00 0.00 34 1009.5
20260504213029 76 288 5.2 12.2 0.00 0.00 0.00 35 1009.5
20260504211514 76 199 5.2 12.2 0.00 0.00 0.00 33 1009.4
20260504210010 76 279 3.5 12.2 0.00 0.00 0.00 33 1009.6
20260504204511 76 286 3.5 14.8 0.00 0.00 0.00 34 1009.6
20260504203008 76 220 4.3 9.6 0.00 0.00 0.00 34 1009.8
20260504201506 76 161 5.2 11.3 0.00 0.00 0.00 34 1010.0
20260504200007 75 255 3.5 12.2 0.00 0.00 0.00 35 1010.3
20260504194505 76 196 3.5 11.3 0.00 0.00 0.00 33 1010.4
20260504193100 76 187 4.3 8.7 0.00 0.00 0.00 35 1010.6
20260504191621 75 267 5.2 13.0 0.00 0.00 0.00 34 1010.8
20260504190058 74 203 2.6 12.2 0.00 0.00 0.00 35 1011.2
20260504184600 74 199 6.1 13.0 0.00 0.00 0.00 35 1011.5
20260504183048 74 241 4.3 12.2 0.00 0.00 0.00 37 1011.8
20260504181545 73 226 7.0 15.6 0.00 0.00 0.00 36 1012.0
20260504180043 73 192 2.6 10.4 0.00 0.00 0.00 35 1012.3
20260504174540 72 293 3.5 12.2 0.00 0.00 0.00 37 1012.5
20260504173039 71 254 4.3 10.4 0.00 0.00 0.00 38 1012.6
20260504171540 71 282 2.6 12.2 0.00 0.00 0.00 35 1012.9